Location: Gazon
(48.1318°N, 1.2708°W)
Time: 02:25:17
(UTC+00:00)

MOS 1 - Pass Details

Date: 18 September 2020
Orbit: 878 x 891 km, 99.1° (Epoch: 29 October)

Event Time Altitude Azimuth Distance (km) Brightness Sun altitude
Exits shadow 19:23:27 - 148° (SSE) 2,701 6.4 -12.8°
Reaches altitude 10° 19:23:51 10° 147° (SSE) 2,552 6.2 -12.9°
Maximum altitude 19:29:25 60° 69° (ENE) 1,021 4.4 -13.8°
Drops below altitude 10° 19:35:02 10° 351° (N) 2,572 7.1 -14.6°
Sets 19:37:28 0° 348° (NNW) 3,516 7.9 -15.0°
